Current conditions around Wisconsin

 

						ASUS43 KMKX 182100
RWRWI

WISCONSIN REGIONAL WEATHER ROUNDUP
NATIONAL WEATHER SERVICE MILWAUKEE/SULLIVAN WI
300 PM CST SAT JAN 18 2020

NOTE: "FAIR" INDICATES FEW OR NO CLOUDS BELOW 12,000 FEET WITH NO
SIGNIFICANT WEATHER AND/OR OBSTRUCTIONS TO VISIBILITY.

WIZ001-002-006>008-014>016-023>028-182200-
NORTHWEST WISCONSIN

CITY           SKY/WX    TMP DP  RH WIND       PRES   REMARKS
SUPERIOR ARPT  CLOUDY    24  16  69 NW17G25   29.71R WCI  11
ASHLAND        CLOUDY    27  21  78 W14       29.64R WCI  16
HAYWARD        LGT SNOW  23  16  74 W9G21     29.67R WCI  13
SIREN          SNOW      15  10  79 W16G25    29.78R VSB 1/2 WCI   0
CUMBERLAND     LGT SNOW  14   9  79 W20G33    29.73R WCI  -3
RICE LAKE      LGT SNOW  20  14  76 W17G25    29.76R WCI   5
CHETEK         LGT SNOW  15  11  83 MISG      29.75R
LADYSMITH      CLOUDY    25  20  82 W20       29.67R WCI  10
EAU CLAIRE     LGT SNOW  14   7  73 W16G29    29.77R WCI  -2
MENOMONIE      LGT SNOW   8   3  79 W18G26    29.82R WCI -11
NEW RICHMOND   LGT SNOW  10   4  76 W22G30    29.83R WCI -10
OSCEOLA        CLOUDY    11   4  75 W18G25    29.88R WCI  -7
$$

WIZ003>005-009-010-017-018-182200-
NORTH CENTRAL WISCONSIN

CITY           SKY/WX    TMP DP  RH WIND       PRES   REMARKS
MANITOWISH WTR NOT AVBL
ARBOR VITAE    CLOUDY    27  21  80 NW12G18   29.55R WCI  16
WOODRUFF       CLOUDY    27  21  80 NW12G18   29.55R WCI  16
RHINELANDER    CLOUDY    25  18  74 W16G28    29.55R WCI  12
EAGLE RIVER    FLURRIES  26  20  77 NW12G17   29.52R WCI  15
LAND O LAKES   FLURRIES  26  22  82 NW6       29.54R WCI  20
PHILLIPS       FLURRIES  24  19  81 W8        29.59R WCI  15
TOMAHAWK       CLOUDY    25  19  79 W9G20     29.58R WCI  15
MEDFORD        LGT SNOW  23  18  82 W14G20    29.61R WCI  11
MERRILL        CLOUDY    27  20  75 NW15      29.59R WCI  15
$$

WIZ029-030-035-036-043>047-182200-
CENTRAL WISCONSIN

CITY           SKY/WX    TMP DP  RH WIND       PRES   REMARKS
WAUSAU         CLOUDY    26  20  77 W14G26    29.58R WCI  14
MOSINEE        CLOUDY    27  21  80 W13G24    29.61R WCI  16
MARSHFIELD     SNOW      22  18  85 W20G33    29.64R VSB 1/2 WCI   7
STEVENS POINT  CLOUDY    25  20  80 W13G22    29.62R WCI  14
WAUPACA        CLOUDY    31  22  71 W15G21    29.62R WCI  20
WAUTOMA        FLURRIES  28  22  78 W18G26      N/A  WCI  15
WISC RAPIDS    LGT SNOW  27  21  78 W14G24    29.66R WCI  16
CAMP DOUGLAS   NOT AVBL
$$

WIZ011>013-019>022-031-037>040-048>050-182200-
NORTHEAST WISCONSIN

CITY           SKY/WX    TMP DP  RH WIND       PRES   REMARKS
ANTIGO         CLOUDY    26  20  79 W13G20    29.55R WCI  15
SHAWANO        CLOUDY    32  24  72 W13G21    29.56R WCI  22
OCONTO         CLOUDY    32  24  73 W12G20    29.54R WCI  23
STURGEON BAY   CLOUDY    31  27  85 W14       29.53R WCI  21
GREEN BAY      CLOUDY    31  22  69 W18G26    29.57R WCI  19
MANITOWOC      CLOUDY    32  25  75 W23       29.58R WCI  19
APPLETON       NOT AVBL
CLINTONVILLE   CLOUDY    30  22  70 W15G24    29.58R WCI  19
OSHKOSH        CLOUDY    30  22  72 W13G29    29.61R WCI  20
$$

WIZ032>034-041-042-053>061-182200-
SOUTHWEST WISCONSIN

CITY           SKY/WX    TMP DP  RH WIND       PRES   REMARKS
LA CROSSE      LGT SNOW  11   2  67 W24G33    29.88  WCI  -9
SPARTA         LGT SNOW  13   8  83 W17G26    29.81R WCI  -4
VIROQUA        CLOUDY    11   8  89 W22G28    29.79R VSB 1   WCI  -9
BOSCOBEL       LGT SNOW  13   4  67 W18G38    29.89R WCI  -4
PRAIRIE DU CHI LGT SNOW  11   4  72 W21G31    29.93R WCI  -8
PLATTEVILLE    CLOUDY    13   9  86 W26G32    29.87R WCI  -8
$$

WIZ056-057-062-063-064-067-068-182200-
SOUTH CENTRAL WISCONSIN

CITY           SKY/WX    TMP DP  RH WIND       PRES   REMARKS
REEDSBURG      CLOUDY    19  15  86 W21G28    29.74R WCI   2
BARABOO/DELLS  CLOUDY    21  18  87 W18G26    29.70R FOG     WCI   6
LONE ROCK      LGT SNOW  16   9  74 W24G36    29.81R WCI  -2
MINERAL POINT  LGT SNOW  14  10  85 W31G37    29.78R WCI  -7
MADISON        LGT SNOW  23  19  85 W16G30    29.71R FOG     WCI  10
MIDDLETON      CLOUDY    23  19  83 W21G35    29.73R WCI   8
WATERTOWN      CLOUDY    30  28  92 W12G20    29.66R WCI  20
MONROE         LGT SNOW  17  12  82 W37G43    29.78R WCI  -5
JANESVILLE     NOT AVBL
$$

WIZ051-052-058>065-066-070>072-182200-
SOUTHEAST WISCONSIN

CITY           SKY/WX    TMP DP  RH WIND       PRES   REMARKS
MILWAUKEE      CLOUDY    34  26  72 W14G24    29.65R WCI  25
WAUKESHA       CLOUDY    28  25  86 W16G24    29.66R WCI  17
MILWAUKEE/TIMM CLOUDY    32  25  74 W21G30    29.65R WCI  20
RACINE         CLOUDY    34  26  72 W21G35    29.68R WCI  22
KENOSHA        CLOUDY    34  28  79 W21G35    29.67R WCI  22
FOND DU LAC    MIX PCPN  31  23  72 W18G28    29.62R WCI  19
SHEBOYGAN      CLOUDY    31  23  72 W23G36    29.60R WCI  18
WEST BEND      CLOUDY    30  27  86 W20G26    29.62R WCI  18
JUNEAU         LGT SNOW  29  26  88 W15G22    29.66R WCI  18
$$

LSZ147-162-182200-
LAKE SUPERIOR

STATION/POSITION TIME  TEMP    WIND        PRES    WAVE
                       AIR SEA DIR/SP/G            HT/PER
                 (UTC) (F)     (DEG/KT/KT) (MB)    (FT/S)
DEVILS ISLAND    2000   28     290/ 18/ 20 1003.1R
SAXON HARBOR     2040   28     290/  8/ 13 1003.0R
$$

LMZ867-665-643>646-182200-
LAKE MICHIGAN

STATION/POSITION TIME  TEMP    WIND        PRES    WAVE
                       AIR SEA DIR/SP/G            HT/PER
                 (UTC) (F)     (DEG/KT/KT) (MB)    (FT/S)
KEWAUNEE LAKESHO 2030   32                  999.9R
SHEBOYGAN LAKESH 2000   32     270/ 15/ 18   N/A
PORT WASHINGTON  2040   33     280/ 11/ 26 1004.7R
MILWAUKEE LAKESH 2030   33     250/ 10/ 13   N/A
KENOSHA   LAKESH 2000   34     260/ 17/ 25 1004.7
$$

TC  - TEMPERATURE IN CELSIUS
VSB - VISIBILITY IN STATUTE MILES
WCI - WIND CHILL INDEX
HX  - HEAT INDEX




ASUS43 KMKX 182110
RWRWI

WISCONSIN REGIONAL WEATHER ROUNDUP
NATIONAL WEATHER SERVICE MILWAUKEE/SULLIVAN WI
300 PM CST SAT JAN 18 2020

NOTE: "FAIR" INDICATES FEW OR NO CLOUDS BELOW 12,000 FEET WITH NO
SIGNIFICANT WEATHER AND/OR OBSTRUCTIONS TO VISIBILITY.

WIZ001-002-006>008-014>016-023>028-182200-
NORTHWEST WISCONSIN

CITY           SKY/WX    TMP DP  RH WIND       PRES   REMARKS
SUPERIOR ARPT  CLOUDY    24  16  69 NW17G25   29.71R WCI  11
ASHLAND        CLOUDY    27  21  78 W14       29.64R WCI  16
HAYWARD        LGT SNOW  23  16  74 W9G21     29.67R WCI  13
SIREN          LGT SNOW  14   8  77 NW20      29.79R WCI  -3
CUMBERLAND     LGT SNOW  14   9  79 W24G30    29.74R WCI  -5
RICE LAKE      LGT SNOW  20  14  76 W17G25    29.76R WCI   5
CHETEK         LGT SNOW  15  10  80 W13G20    29.76R WCI   1
LADYSMITH      CLOUDY    25  20  82 W20       29.67R WCI  10
EAU CLAIRE     LGT SNOW  14   6  70 W18G29    29.78R WCI  -3
MENOMONIE      LGT SNOW   8   3  79 W18G26    29.82R WCI -11
NEW RICHMOND   LGT SNOW  10   4  75 W23G31    29.84R WCI -10
OSCEOLA        CLOUDY    11   4  75 W15G23    29.89R WCI  -6
$$

WIZ003>005-009-010-017-018-182200-
NORTH CENTRAL WISCONSIN

CITY           SKY/WX    TMP DP  RH WIND       PRES   REMARKS
MANITOWISH WTR NOT AVBL
ARBOR VITAE    CLOUDY    27  21  80 NW12G18   29.55R WCI  16
WOODRUFF       CLOUDY    27  21  80 NW12G18   29.55R WCI  16
RHINELANDER    CLOUDY    25  18  74 W16G28    29.55R WCI  12
EAGLE RIVER    FLURRIES  26  20  77 NW12G17   29.52R WCI  15
LAND O LAKES   FLURRIES  26  22  82 NW6       29.54R WCI  20
PHILLIPS       FLURRIES  24  20  84 W6        29.60R WCI  17
TOMAHAWK       CLOUDY    25  19  79 W9G20     29.58R WCI  15
MEDFORD        LGT SNOW  23  18  82 W14G20    29.61R WCI  11
MERRILL        MIX PCPN  26  20  77 NW13      29.60R WCI  15
$$

WIZ029-030-035-036-043>047-182200-
CENTRAL WISCONSIN

CITY           SKY/WX    TMP DP  RH WIND       PRES   REMARKS
WAUSAU         CLOUDY    26  20  77 W14G26    29.58R WCI  14
MOSINEE        CLOUDY    27  21  80 W13G24    29.61R WCI  16
MARSHFIELD     SNOW      22  18  85 W20G33    29.64R VSB 1/2 WCI   7
STEVENS POINT  CLOUDY    25  20  80 W9G21     29.63R WCI  16
WAUPACA        CLOUDY    31  22  71 W15G21    29.62R WCI  20
WAUTOMA        FLURRIES  28  22  78 W18G26      N/A  WCI  15
WISC RAPIDS    LGT SNOW  24  19  81 W17G33    29.67R WCI  11
CAMP DOUGLAS   LGT SNOW  16  14  93 W26G32    29.73R BLWGSNOWWCI  -3
$$

WIZ011>013-019>022-031-037>040-048>050-182200-
NORTHEAST WISCONSIN

CITY           SKY/WX    TMP DP  RH WIND       PRES   REMARKS
ANTIGO         CLOUDY    26  20  79 W13G20    29.55R WCI  15
SHAWANO        CLOUDY    32  24  72 W13G21    29.56R WCI  22
OCONTO         CLOUDY    32  24  72 W12       29.54R WCI  23
STURGEON BAY   CLOUDY    31  27  85 W14       29.53R WCI  21
GREEN BAY      CLOUDY    31  22  69 W18G26    29.57R WCI  19
MANITOWOC      CLOUDY    32  25  75 W23       29.58R WCI  19
APPLETON       CLOUDY    28  18  64 W25G31    29.58R WCI  14
CLINTONVILLE   CLOUDY    30  22  70 W20G25    29.59R WCI  17
OSHKOSH        CLOUDY    30  22  72 W13G29    29.61R WCI  20
$$

WIZ032>034-041-042-053>061-182200-
SOUTHWEST WISCONSIN

CITY           SKY/WX    TMP DP  RH WIND       PRES   REMARKS
LA CROSSE      LGT SNOW  11   2  67 W24G33    29.88  WCI  -9
SPARTA         LGT SNOW  13   8  83 W17G26    29.81R WCI  -4
VIROQUA        CLOUDY    10   7  89 W21G26    29.80R WCI  -9
BOSCOBEL       LGT SNOW  13   4  67 W18G38    29.89R WCI  -4
PRAIRIE DU CHI LGT SNOW  11   4  72 W21G31    29.93R WCI  -8
PLATTEVILLE    CLOUDY    13   9  86 W26G32    29.87R WCI  -8
$$

WIZ056-057-062-063-064-067-068-182200-
SOUTH CENTRAL WISCONSIN

CITY           SKY/WX    TMP DP  RH WIND       PRES   REMARKS
REEDSBURG      CLOUDY    19  15  86 W21G28    29.74R WCI   2
BARABOO/DELLS  LGT SNOW  19  16  89 W24G31    29.72R WCI   1
LONE ROCK      LGT SNOW  14   9  80 W20G37    29.84R WCI  -3
MINERAL POINT  CLOUDY    14   9  79 W29G41    29.80R HAZE    WCI  -7
MADISON        LGT SNOW  22  18  85 W10G30    29.71R FOG     WCI  11
MIDDLETON      CLOUDY    23  19  83 W21G35    29.73R WCI   8
WATERTOWN      CLOUDY    30  28  92 W12G20    29.66R WCI  20
MONROE         LGT SNOW  15  11  82 W26G35    29.79R WCI  -4
JANESVILLE     CLOUDY    25  18  74 W16G36    29.76R WCI  12
$$

WIZ051-052-058>065-066-070>072-182200-
SOUTHEAST WISCONSIN

CITY           SKY/WX    TMP DP  RH WIND       PRES   REMARKS
MILWAUKEE      CLOUDY    34  26  72 W14G24    29.65R WCI  25
WAUKESHA       CLOUDY    28  25  86 W16G24    29.66R WCI  17
MILWAUKEE/TIMM CLOUDY    32  25  74 W21G30    29.65R WCI  20
RACINE         CLOUDY    34  26  72 W21G35    29.68R WCI  22
KENOSHA        CLOUDY    34  28  79 W21G35    29.67R WCI  22
FOND DU LAC    MIX PCPN  31  23  72 W18G28    29.62R WCI  19
SHEBOYGAN      CLOUDY    31  23  72 W23G36    29.60R WCI  18
WEST BEND      CLOUDY    30  27  86 W20G26    29.62R WCI  18
JUNEAU         CLOUDY    29  25  86 W9G17     29.66R WCI  20
$$

LSZ147-162-182200-
LAKE SUPERIOR

STATION/POSITION TIME  TEMP    WIND        PRES    WAVE
                       AIR SEA DIR/SP/G            HT/PER
                 (UTC) (F)     (DEG/KT/KT) (MB)    (FT/S)
DEVILS ISLAND    2000   28     290/ 18/ 20 1003.1R
SAXON HARBOR     2040   28     290/  8/ 13 1003.0R
$$

LMZ867-665-643>646-182200-
LAKE MICHIGAN

STATION/POSITION TIME  TEMP    WIND        PRES    WAVE
                       AIR SEA DIR/SP/G            HT/PER
                 (UTC) (F)     (DEG/KT/KT) (MB)    (FT/S)
KEWAUNEE LAKESHO 2030   32                  999.9R
SHEBOYGAN LAKESH 2100   31     270/ 22/ 29   N/A
PORT WASHINGTON  2040   33     280/ 11/ 26 1004.7R
MILWAUKEE LAKESH 2050   33     260/ 15/ 23   N/A
KENOSHA   LAKESH 2100   33     280/ 16/ 27 1005.4
$$

TC  - TEMPERATURE IN CELSIUS
VSB - VISIBILITY IN STATUTE MILES
WCI - WIND CHILL INDEX
HX  - HEAT INDEX




ASUS43 KMKX 182120
RWRWI

WISCONSIN REGIONAL WEATHER ROUNDUP
NATIONAL WEATHER SERVICE MILWAUKEE/SULLIVAN WI
300 PM CST SAT JAN 18 2020

NOTE: "FAIR" INDICATES FEW OR NO CLOUDS BELOW 12,000 FEET WITH NO
SIGNIFICANT WEATHER AND/OR OBSTRUCTIONS TO VISIBILITY.

WIZ001-002-006>008-014>016-023>028-182200-
NORTHWEST WISCONSIN

CITY           SKY/WX    TMP DP  RH WIND       PRES   REMARKS
SUPERIOR ARPT  CLOUDY    24  16  69 W16G24    29.72R WCI  11
ASHLAND        CLOUDY    27  21  78 W14       29.64R WCI  16
HAYWARD        LGT SNOW  23  15  71 W10G22    29.68R WCI  12
SIREN          LGT SNOW  14   8  77 NW20      29.79R WCI  -3
CUMBERLAND     LGT SNOW  14   9  79 W24G30    29.74R WCI  -5
RICE LAKE      LGT SNOW  20  14  76 W16G24    29.77R WCI   6
CHETEK         LGT SNOW  15  10  80 W13G20    29.76R WCI   1
LADYSMITH      CLOUDY    24  19  81 W17       29.69R WCI  10
EAU CLAIRE     LGT SNOW  14   6  70 W18G29    29.78R WCI  -3
MENOMONIE      FAIR       8   3  80 W18G29    29.83R HAZE    WCI -11
NEW RICHMOND   LGT SNOW  10   4  75 W23G31    29.84R WCI -10
OSCEOLA        CLOUDY    11   4  75 W15G23    29.89R WCI  -6
$$

WIZ003>005-009-010-017-018-182200-
NORTH CENTRAL WISCONSIN

CITY           SKY/WX    TMP DP  RH WIND       PRES   REMARKS
MANITOWISH WTR NOT AVBL
ARBOR VITAE    CLOUDY    27  21  80 NW12G17   29.56R WCI  16
WOODRUFF       CLOUDY    27  21  80 NW12G17   29.56R WCI  16
RHINELANDER    CLOUDY    25  18  74 W16G28    29.55R WCI  12
EAGLE RIVER    CLOUDY    25  19  77 NW10G18   29.53R WCI  15
LAND O LAKES   FLURRIES  26  20  80 NW8G18    29.55R WCI  17
PHILLIPS       FLURRIES  24  20  84 W6        29.60R WCI  17
TOMAHAWK       CLOUDY    24  19  80 W13       29.59R WCI  13
MEDFORD        FLURRIES  23  18  82 W13G23    29.62R WCI  11
MERRILL        MIX PCPN  26  20  77 NW13      29.60R WCI  15
$$

WIZ029-030-035-036-043>047-182200-
CENTRAL WISCONSIN

CITY           SKY/WX    TMP DP  RH WIND       PRES   REMARKS
WAUSAU         CLOUDY    26  20  77 W14G26    29.58R WCI  14
MOSINEE        CLOUDY    27  21  80 W13G24    29.61R WCI  16
MARSHFIELD     LGT SNOW  19  15  84 W23G36    29.66R VSB 3/4 WCI   2
STEVENS POINT  CLOUDY    25  20  80 W9G21     29.63R WCI  16
WAUPACA        CLOUDY    31  22  71 W14G23    29.63R WCI  20
WAUTOMA        FLURRIES  28  22  78 W18G26      N/A  WCI  15
WISC RAPIDS    LGT SNOW  22  18  85 W22G32    29.69R FOG     WCI   6
CAMP DOUGLAS   LGT SNOW  16  14  93 W26G32    29.73R BLWGSNOWWCI  -3
$$

WIZ011>013-019>022-031-037>040-048>050-182200-
NORTHEAST WISCONSIN

CITY           SKY/WX    TMP DP  RH WIND       PRES   REMARKS
ANTIGO         CLOUDY    26  20  79 W16G23    29.56R WCI  13
SHAWANO        CLOUDY    32  24  72 W15G21    29.57R WCI  22
OCONTO         CLOUDY    32  24  72 W12       29.54R WCI  23
STURGEON BAY   CLOUDY    31  27  85 W14       29.53R WCI  21
GREEN BAY      CLOUDY    31  22  69 W18G26    29.57R WCI  19
MANITOWOC      CLOUDY    32  25  75 W23       29.58R WCI  19
APPLETON       CLOUDY    28  18  64 W25G31    29.58R WCI  14
CLINTONVILLE   CLOUDY    30  21  70 W15G21    29.60R WCI  19
OSHKOSH        CLOUDY    30  22  72 W13G29    29.61R WCI  20
$$

WIZ032>034-041-042-053>061-182200-
SOUTHWEST WISCONSIN

CITY           SKY/WX    TMP DP  RH WIND       PRES   REMARKS
LA CROSSE      LGT SNOW  11   2  67 W24G33    29.88  WCI  -9
SPARTA         LGT SNOW  11   7  83 W12G25    29.83R VSB 3/4 WCI  -3
VIROQUA        CLOUDY    10   7  89 W21G26    29.80R WCI  -9
BOSCOBEL       LGT SNOW  13   4  67 W18G36    29.90R WCI  -4
PRAIRIE DU CHI LGT SNOW  11   3  70 W18G33    29.94R WCI  -7
PLATTEVILLE    CLOUDY    11   8  85 W28G43    29.89R WCI -10
$$

WIZ056-057-062-063-064-067-068-182200-
SOUTH CENTRAL WISCONSIN

CITY           SKY/WX    TMP DP  RH WIND       PRES   REMARKS
REEDSBURG      CLOUDY    17  12  82 W17G30    29.77R WCI   1
BARABOO/DELLS  LGT SNOW  19  16  89 W24G31    29.72R WCI   1
LONE ROCK      LGT SNOW  14   9  80 W20G37    29.84R WCI  -3
MINERAL POINT  CLOUDY    14   9  79 W29G41    29.80R HAZE    WCI  -7
MADISON        LGT SNOW  21  17  84 W15G29    29.73R FOG     WCI   8
MIDDLETON      CLOUDY    21  16  79 W23       29.75R WCI   5
WATERTOWN      CLOUDY    30  27  90 W13G18    29.67R WCI  20
MONROE         LGT SNOW  15  11  82 W26G35    29.79R WCI  -4
JANESVILLE     CLOUDY    25  18  74 W16G36    29.76R WCI  12
$$

WIZ051-052-058>065-066-070>072-182200-
SOUTHEAST WISCONSIN

CITY           SKY/WX    TMP DP  RH WIND       PRES   REMARKS
MILWAUKEE      CLOUDY    34  26  72 W14G24    29.65R WCI  25
WAUKESHA       CLOUDY    28  25  86 W16G24    29.66R WCI  17
MILWAUKEE/TIMM CLOUDY    32  25  74 W21G30    29.65R WCI  20
RACINE         CLOUDY    34  26  72 W21G35    29.68R WCI  22
KENOSHA        CLOUDY    32  27  81 W23G39    29.69R WCI  19
FOND DU LAC    MIX PCPN  31  23  72 W18G28    29.62R WCI  19
SHEBOYGAN      CLOUDY    31  23  72 W23G36    29.60R WCI  18
WEST BEND      CLOUDY    30  27  86 W14G24    29.64R WCI  20
JUNEAU         CLOUDY    29  25  86 W9G17     29.66R WCI  20
$$

LSZ147-162-182200-
LAKE SUPERIOR

STATION/POSITION TIME  TEMP    WIND        PRES    WAVE
                       AIR SEA DIR/SP/G            HT/PER
                 (UTC) (F)     (DEG/KT/KT) (MB)    (FT/S)
DEVILS ISLAND    2100   29     290/ 18/ 20 1003.5R
SAXON HARBOR     2040   28     290/  8/ 13 1003.0R
$$

LMZ867-665-643>646-182200-
LAKE MICHIGAN

STATION/POSITION TIME  TEMP    WIND        PRES    WAVE
                       AIR SEA DIR/SP/G            HT/PER
                 (UTC) (F)     (DEG/KT/KT) (MB)    (FT/S)
KEWAUNEE LAKESHO 2048   32                 1000.1R
SHEBOYGAN LAKESH 2100   31     270/ 22/ 29   N/A
PORT WASHINGTON  2040   33     280/ 11/ 26 1004.7R
MILWAUKEE LAKESH 2050   33     260/ 15/ 23   N/A
KENOSHA   LAKESH 2100   33     280/ 16/ 27 1005.4
$$

TC  - TEMPERATURE IN CELSIUS
VSB - VISIBILITY IN STATUTE MILES
WCI - WIND CHILL INDEX
HX  - HEAT INDEX